Time,TemperatureF,DewpointF,PressureIn,WindDirection,WindDirectionDegrees,WindSpeedMPH,WindSpeedGustMPH,Humidity,HourlyPrecipIn,Conditions,Clouds,dailyrainin,SoftwareType,DateUTC
2013-04-23 00:00:00,39.9,20.8,30.68,SE,136,0.0,0.0,46,0.00,,SKC,0.00,VWS V13.01,2013-04-23 04:00:00,
2013-04-23 00:01:00,39.9,20.8,30.68,SE,136,0.0,0.0,46,0.00,,SKC,0.00,VWS V13.01,2013-04-23 04:01:00,
2013-04-23 00:06:00,39.7,20.6,30.68,South,181,0.0,0.0,46,0.00,,SKC,0.00,VWS V13.01,2013-04-23 04:06:00,
2013-04-23 00:11:00,39.5,21.0,30.67,SE,136,0.0,0.0,47,0.00,,SKC,0.00,VWS V13.01,2013-04-23 04:11:00,
2013-04-23 00:17:00,39.3,21.3,30.67,SE,136,1.1,1.1,48,0.00,,SKC,0.00,VWS V13.01,2013-04-23 04:17:00,
2013-04-23 00:22:00,39.3,21.8,30.67,SSW,204,0.0,0.0,49,0.00,,SKC,0.00,VWS V13.01,2013-04-23 04:22:00,
2013-04-23 00:27:00,39.3,21.8,30.67,South,181,0.0,0.0,49,0.00,,SKC,0.00,VWS V13.01,2013-04-23 04:27:00,
2013-04-23 00:32:00,39.3,22.2,30.68,WSW,248,0.0,0.0,50,0.00,,SKC,0.00,VWS V13.01,2013-04-23 04:32:00,
2013-04-23 00:37:00,39.3,22.2,30.67,ESE,114,0.0,0.0,50,0.00,,SKC,0.00,VWS V13.01,2013-04-23 04:37:00,
2013-04-23 00:42:00,39.3,22.7,30.67,South,181,2.9,2.9,51,0.00,,SKC,0.00,VWS V13.01,2013-04-23 04:42:00,
2013-04-23 00:47:00,39.2,22.6,30.67,SE,136,0.0,0.0,51,0.00,,SKC,0.00,VWS V13.01,2013-04-23 04:47:00,
2013-04-23 00:52:00,39.0,22.4,30.67,SSW,204,0.0,0.0,51,0.00,,SKC,0.00,VWS V13.01,2013-04-23 04:52:00,
2013-04-23 00:57:00,39.0,22.4,30.67,SSE,158,1.7,1.7,51,0.00,,SKC,0.00,VWS V13.01,2013-04-23 04:57:00,
2013-04-23 01:02:00,38.8,22.2,30.67,SSE,158,0.0,0.0,51,0.00,,SKC,0.00,VWS V13.01,2013-04-23 05:02:00,
2013-04-23 01:07:00,38.6,22.5,30.67,SSW,204,0.0,0.0,52,0.00,,SKC,0.00,VWS V13.01,2013-04-23 05:07:00,
2013-04-23 01:12:00,38.4,22.3,30.67,SW,226,0.0,0.0,52,0.00,,SKC,0.00,VWS V13.01,2013-04-23 05:12:00,
2013-04-23 01:17:00,38.3,22.2,30.67,SW,226,0.0,0.0,52,0.00,,SKC,0.00,VWS V13.01,2013-04-23 05:17:00,
2013-04-23 01:22:00,38.1,22.0,30.67,South,181,0.0,0.0,52,0.00,,SKC,0.00,VWS V13.01,2013-04-23 05:22:00,
2013-04-23 01:27:00,38.1,22.5,30.67,SSE,158,0.0,0.0,53,0.00,,SKC,0.00,VWS V13.01,2013-04-23 05:27:00,
2013-04-23 01:32:00,37.9,22.3,30.66,SE,136,0.0,0.0,53,0.00,,SKC,0.00,VWS V13.01,2013-04-23 05:32:00,
2013-04-23 01:37:00,37.9,21.9,30.66,South,181,0.0,0.0,52,0.00,,SKC,0.00,VWS V13.01,2013-04-23 05:37:00,
2013-04-23 01:42:00,37.7,21.7,30.66,South,181,0.0,0.0,52,0.00,,SKC,0.00,VWS V13.01,2013-04-23 05:42:00,
2013-04-23 01:47:00,37.4,21.9,30.66,South,181,0.0,0.0,53,0.00,,SKC,0.00,VWS V13.01,2013-04-23 05:47:00,
2013-04-23 01:52:00,37.2,21.7,30.66,South,181,0.0,0.0,53,0.00,,SKC,0.00,VWS V13.01,2013-04-23 05:52:00,
2013-04-23 01:57:00,36.8,21.3,30.66,SW,226,0.0,0.0,53,0.00,,SKC,0.00,VWS V13.01,2013-04-23 05:57:00,
2013-04-23 02:02:00,36.3,20.8,30.66,SW,226,0.0,0.0,53,0.00,,SKC,0.00,VWS V13.01,2013-04-23 06:02:00,
2013-04-23 02:07:00,36.1,21.1,30.66,SW,226,0.0,0.0,54,0.00,,SKC,0.00,VWS V13.01,2013-04-23 06:07:00,
2013-04-23 02:12:00,35.7,21.1,30.66,SW,226,0.0,0.0,55,0.00,,SKC,0.00,VWS V13.01,2013-04-23 06:12:00,
2013-04-23 02:17:00,35.2,20.7,30.66,SW,226,0.0,0.0,55,0.00,,SKC,0.00,VWS V13.01,2013-04-23 06:17:00,
2013-04-23 02:22:00,34.8,20.3,30.66,SW,226,0.0,0.0,55,0.00,,SKC,0.00,VWS V13.01,2013-04-23 06:22:00,
2013-04-23 02:27:00,34.3,20.2,30.65,SW,226,0.0,0.0,56,0.00,,SKC,0.00,VWS V13.01,2013-04-23 06:27:00,
2013-04-23 02:32:00,33.9,19.9,30.65,SW,226,0.0,0.0,56,0.00,,SKC,0.00,VWS V13.01,2013-04-23 06:32:00,
2013-04-23 02:37:00,33.6,20.0,30.65,SW,226,0.0,0.0,57,0.00,,SKC,0.00,VWS V13.01,2013-04-23 06:37:00,
2013-04-23 02:42:00,33.4,20.2,30.65,SW,226,0.0,0.0,58,0.00,,SKC,0.00,VWS V13.01,2013-04-23 06:42:00,
2013-04-23 02:47:00,32.9,19.8,30.65,SW,226,0.0,0.0,58,0.00,,SKC,0.00,VWS V13.01,2013-04-23 06:47:00,
2013-04-23 02:52:00,32.7,19.6,30.65,SW,226,0.0,0.0,58,0.00,,SKC,0.00,VWS V13.01,2013-04-23 06:52:00,
2013-04-23 02:57:00,32.5,19.8,30.65,SW,226,0.0,0.0,59,0.00,,SKC,0.00,VWS V13.01,2013-04-23 06:57:00,
2013-04-23 03:02:00,32.1,19.4,30.65,SW,226,0.0,0.0,59,0.00,,SKC,0.00,VWS V13.01,2013-04-23 07:02:00,
2013-04-23 03:08:00,32.1,19.4,30.65,SW,226,0.0,0.0,59,0.00,,SKC,0.00,VWS V13.01,2013-04-23 07:08:00,
2013-04-23 03:13:00,31.8,19.5,30.65,SW,226,0.0,0.0,60,0.00,,SKC,0.00,VWS V13.01,2013-04-23 07:13:00,
2013-04-23 03:18:00,31.8,19.5,30.64,SW,226,0.0,0.0,60,0.00,,SKC,0.00,VWS V13.01,2013-04-23 07:18:00,
2013-04-23 03:23:00,31.8,19.5,30.64,SW,226,0.0,0.0,60,0.00,,SKC,0.00,VWS V13.01,2013-04-23 07:23:00,
2013-04-23 03:28:00,31.6,19.7,30.64,SW,226,0.0,0.0,61,0.00,,SKC,0.00,VWS V13.01,2013-04-23 07:28:00,
2013-04-23 03:33:00,31.6,19.7,30.65,SW,226,0.0,0.0,61,0.00,,SKC,0.00,VWS V13.01,2013-04-23 07:33:00,
2013-04-23 03:38:00,31.6,19.7,30.64,SW,226,0.0,0.0,61,0.00,,SKC,0.00,VWS V13.01,2013-04-23 07:38:00,
2013-04-23 03:43:00,31.2,19.3,30.64,SW,226,0.0,0.0,61,0.00,,SKC,0.00,VWS V13.01,2013-04-23 07:43:00,
2013-04-23 03:48:00,31.2,19.7,30.64,SW,226,0.0,0.0,62,0.00,,SKC,0.00,VWS V13.01,2013-04-23 07:48:00,
2013-04-23 03:53:00,31.1,19.6,30.64,SW,226,0.0,0.0,62,0.00,,SKC,0.00,VWS V13.01,2013-04-23 07:53:00,
2013-04-23 03:58:00,30.9,19.4,30.64,SW,226,0.0,0.0,62,0.00,,SKC,0.00,VWS V13.01,2013-04-23 07:58:00,
2013-04-23 04:03:00,30.7,19.6,30.64,SW,226,0.0,0.0,63,0.00,,SKC,0.00,VWS V13.01,2013-04-23 08:03:00,
2013-04-23 04:08:00,30.7,19.6,30.64,South,181,0.0,0.0,63,0.00,,SKC,0.00,VWS V13.01,2013-04-23 08:08:00,
2013-04-23 04:13:00,30.7,19.6,30.64,South,181,0.0,0.0,63,0.00,,SKC,0.00,VWS V13.01,2013-04-23 08:13:00,
2013-04-23 04:18:00,30.7,19.6,30.64,South,181,0.0,0.0,63,0.00,,SKC,0.00,VWS V13.01,2013-04-23 08:18:00,
2013-04-23 04:23:00,30.9,20.2,30.63,South,181,0.0,0.0,64,0.00,,SKC,0.00,VWS V13.01,2013-04-23 08:23:00,
2013-04-23 04:28:00,30.9,20.2,30.64,South,181,0.0,0.0,64,0.00,,SKC,0.00,VWS V13.01,2013-04-23 08:28:00,
2013-04-23 04:33:00,30.9,20.2,30.64,South,181,0.0,0.0,64,0.00,,SKC,0.00,VWS V13.01,2013-04-23 08:33:00,
2013-04-23 04:38:00,30.5,19.8,30.63,South,181,0.0,0.0,64,0.00,,SKC,0.00,VWS V13.01,2013-04-23 08:38:00,
2013-04-23 04:43:00,30.2,19.5,30.63,South,181,0.0,0.0,64,0.00,,SKC,0.00,VWS V13.01,2013-04-23 08:43:00,
2013-04-23 04:48:00,30.2,19.9,30.63,South,181,0.0,0.0,65,0.00,,SKC,0.00,VWS V13.01,2013-04-23 08:48:00,
2013-04-23 04:53:00,30.5,20.1,30.63,South,181,0.0,0.0,65,0.00,,SKC,0.00,VWS V13.01,2013-04-23 08:53:00,
2013-04-23 04:58:00,30.9,20.9,30.63,South,181,0.0,0.0,66,0.00,,SKC,0.00,VWS V13.01,2013-04-23 08:58:00,
2013-04-23 05:03:00,31.1,21.1,30.63,SW,226,0.0,0.0,66,0.00,,SKC,0.00,VWS V13.01,2013-04-23 09:03:00,
2013-04-23 05:08:00,31.4,21.4,30.63,NW,316,0.0,0.0,66,0.00,,SKC,0.00,VWS V13.01,2013-04-23 09:08:00,
2013-04-23 05:13:00,31.8,21.8,30.63,East,91,0.0,0.0,66,0.00,,SKC,0.00,VWS V13.01,2013-04-23 09:13:00,
2013-04-23 05:18:00,32.0,21.9,30.63,East,91,0.0,0.0,66,0.00,,SKC,0.00,VWS V13.01,2013-04-23 09:18:00,
2013-04-23 05:23:00,32.1,22.0,30.63,NE,46,0.0,0.0,66,0.00,,SKC,0.00,VWS V13.01,2013-04-23 09:23:00,
2013-04-23 05:28:00,32.1,22.0,30.63,NE,46,0.0,0.0,66,0.00,,SKC,0.00,VWS V13.01,2013-04-23 09:28:00,
2013-04-23 05:33:00,32.1,22.0,30.63,NE,46,0.0,0.0,66,0.00,,SKC,0.00,VWS V13.01,2013-04-23 09:33:00,
2013-04-23 05:38:00,32.0,21.9,30.63,NE,46,0.0,0.0,66,0.00,,SKC,0.00,VWS V13.01,2013-04-23 09:38:00,
2013-04-23 05:43:00,31.8,21.8,30.62,NE,46,0.0,0.0,66,0.00,,SKC,0.00,VWS V13.01,2013-04-23 09:43:00,
2013-04-23 05:49:00,31.4,21.4,30.63,NE,46,0.0,0.0,66,0.00,,SKC,0.00,VWS V13.01,2013-04-23 09:49:00,
2013-04-23 05:54:00,30.9,20.9,30.62,NE,46,0.0,0.0,66,0.00,,SKC,0.00,VWS V13.01,2013-04-23 09:54:00,
2013-04-23 05:59:00,30.7,21.1,30.63,NE,46,0.0,0.0,67,0.00,,SKC,0.00,VWS V13.01,2013-04-23 09:59:00,
2013-04-23 06:04:00,30.7,20.7,30.62,NE,46,0.0,0.0,66,0.00,,SKC,0.00,VWS V13.01,2013-04-23 10:04:00,
2013-04-23 06:09:00,30.5,20.9,30.62,NE,46,0.0,0.0,67,0.00,,SKC,0.00,VWS V13.01,2013-04-23 10:09:00,
2013-04-23 06:14:00,30.5,20.9,30.62,NE,46,0.0,0.0,67,0.00,,SKC,0.00,VWS V13.01,2013-04-23 10:14:00,
2013-04-23 06:19:00,30.5,20.9,30.62,ENE,68,0.0,0.0,67,0.00,,SKC,0.00,VWS V13.01,2013-04-23 10:19:00,
2013-04-23 06:24:00,30.3,20.7,30.62,ENE,68,0.0,0.0,67,0.00,,SKC,0.00,VWS V13.01,2013-04-23 10:24:00,
2013-04-23 06:29:00,30.0,20.4,30.62,NE,46,0.0,0.0,67,0.00,,SKC,0.00,VWS V13.01,2013-04-23 10:29:00,
2013-04-23 06:34:00,30.0,20.7,30.62,NE,46,0.0,0.0,68,0.00,,SKC,0.00,VWS V13.01,2013-04-23 10:34:00,
2013-04-23 06:39:00,30.2,20.9,30.62,NE,46,0.0,0.0,68,0.00,,SKC,0.00,VWS V13.01,2013-04-23 10:39:00,
2013-04-23 06:44:00,30.7,21.4,30.62,NE,46,0.0,0.0,68,0.00,,SKC,0.00,VWS V13.01,2013-04-23 10:44:00,
2013-04-23 06:49:00,31.2,21.9,30.62,NE,46,0.0,0.0,68,0.00,,SKC,0.00,VWS V13.01,2013-04-23 10:49:00,
2013-04-23 06:54:00,32.3,22.9,30.62,ENE,68,0.0,0.0,68,0.00,,SKC,0.00,VWS V13.01,2013-04-23 10:54:00,
2013-04-23 06:59:00,33.0,23.6,30.61,ENE,68,0.0,0.0,68,0.00,,SKC,0.00,VWS V13.01,2013-04-23 10:59:00,
2013-04-23 07:04:00,33.6,24.2,30.61,NE,46,0.0,0.0,68,0.00,,SKC,0.00,VWS V13.01,2013-04-23 11:04:00,
2013-04-23 07:09:00,34.8,25.3,30.61,NNW,338,0.0,0.0,68,0.00,,SKC,0.00,VWS V13.01,2013-04-23 11:09:00,
2013-04-23 07:14:00,35.7,26.2,30.61,NNE,24,0.0,0.0,68,0.00,,SKC,0.00,VWS V13.01,2013-04-23 11:14:00,
2013-04-23 07:19:00,36.6,27.0,30.61,ENE,68,0.0,0.0,68,0.00,,SKC,0.00,VWS V13.01,2013-04-23 11:19:00,
2013-04-23 07:24:00,37.2,27.3,30.61,NE,46,0.0,0.0,67,0.00,,SKC,0.00,VWS V13.01,2013-04-23 11:24:00,
2013-04-23 07:29:00,37.9,27.9,30.61,South,181,0.0,0.0,67,0.00,,SKC,0.00,VWS V13.01,2013-04-23 11:29:00,
2013-04-23 07:34:00,38.3,28.0,30.61,ENE,68,0.0,0.0,66,0.00,,SKC,0.00,VWS V13.01,2013-04-23 11:34:00,
2013-04-23 07:39:00,38.3,28.0,30.61,SSE,158,0.0,0.0,66,0.00,,SKC,0.00,VWS V13.01,2013-04-23 11:39:00,
2013-04-23 07:44:00,38.4,28.0,30.61,WSW,248,0.0,0.0,66,0.00,,SKC,0.00,VWS V13.01,2013-04-23 11:44:00,
2013-04-23 07:49:00,38.8,28.1,30.61,South,181,0.0,0.0,65,0.00,,SKC,0.00,VWS V13.01,2013-04-23 11:49:00,
2013-04-23 07:54:00,39.0,28.2,30.61,WSW,248,0.0,0.0,65,0.00,,SKC,0.00,VWS V13.01,2013-04-23 11:54:00,
2013-04-23 07:59:00,39.3,28.5,30.61,East,91,0.0,0.0,65,0.00,,SKC,0.00,VWS V13.01,2013-04-23 11:59:00,
2013-04-23 08:04:00,39.9,28.7,30.61,North,1,0.0,0.0,64,0.00,,SKC,0.00,VWS V13.01,2013-04-23 12:04:00,
2013-04-23 08:09:00,40.6,29.4,30.61,South,181,0.0,0.0,64,0.00,,SKC,0.00,VWS V13.01,2013-04-23 12:09:00,
2013-04-23 08:14:00,40.8,29.6,30.61,ESE,114,0.0,0.0,64,0.00,,SKC,0.00,VWS V13.01,2013-04-23 12:14:00,
2013-04-23 08:19:00,41.3,29.7,30.61,SSE,158,3.3,3.3,63,0.00,,SKC,0.00,VWS V13.01,2013-04-23 12:19:00,
2013-04-23 08:25:00,41.7,29.7,30.60,SSE,158,0.0,0.0,62,0.00,,SKC,0.00,VWS V13.01,2013-04-23 12:25:00,
2013-04-23 08:30:00,42.0,29.9,30.60,NNW,338,0.0,0.0,62,0.00,,SKC,0.00,VWS V13.01,2013-04-23 12:30:00,
2013-04-23 08:35:00,42.4,29.9,30.60,SSE,158,3.3,3.3,61,0.00,,SKC,0.00,VWS V13.01,2013-04-23 12:35:00,
2013-04-23 08:40:00,42.6,30.1,30.60,SSE,158,0.8,0.8,61,0.00,,SKC,0.00,VWS V13.01,2013-04-23 12:40:00,
2013-04-23 08:45:00,42.9,30.0,30.60,East,91,0.0,0.0,60,0.00,,SKC,0.00,VWS V13.01,2013-04-23 12:45:00,
2013-04-23 08:50:00,42.9,29.6,30.60,NNW,338,0.0,0.0,59,0.00,,SKC,0.00,VWS V13.01,2013-04-23 12:50:00,
2013-04-23 08:55:00,43.1,29.8,30.59,SSE,158,0.0,0.0,59,0.00,,SKC,0.00,VWS V13.01,2013-04-23 12:55:00,
2013-04-23 09:00:00,43.3,30.0,30.59,ESE,114,0.0,0.0,59,0.00,,SKC,0.00,VWS V13.01,2013-04-23 13:00:00,
2013-04-23 09:05:00,43.7,30.3,30.59,NNW,338,0.0,0.0,59,0.00,,SKC,0.00,VWS V13.01,2013-04-23 13:05:00,
2013-04-23 09:10:00,43.8,30.0,30.59,SW,226,0.0,0.0,58,0.00,,SKC,0.00,VWS V13.01,2013-04-23 13:10:00,
2013-04-23 09:15:00,44.2,30.4,30.59,SW,226,2.9,2.9,58,0.00,,SKC,0.00,VWS V13.01,2013-04-23 13:15:00,
2013-04-23 09:20:00,44.4,30.1,30.59,South,181,0.0,0.0,57,0.00,,SKC,0.00,VWS V13.01,2013-04-23 13:20:00,
2013-04-23 09:25:00,44.7,30.0,30.58,South,181,3.3,3.3,56,0.00,,SKC,0.00,VWS V13.01,2013-04-23 13:25:00,
2013-04-23 09:30:00,45.1,30.4,30.58,SE,136,2.4,3.1,56,0.00,,SKC,0.00,VWS V13.01,2013-04-23 13:30:00,
2013-04-23 09:35:00,45.3,30.1,30.58,SSE,158,0.0,0.0,55,0.00,,SKC,0.00,VWS V13.01,2013-04-23 13:35:00,
2013-04-23 09:40:00,45.6,30.4,30.58,South,181,0.0,0.6,55,0.00,,SKC,0.00,VWS V13.01,2013-04-23 13:40:00,
2013-04-23 09:45:00,46.0,30.8,30.57,ESE,114,2.2,2.2,55,0.00,,SKC,0.00,VWS V13.01,2013-04-23 13:45:00,
2013-04-23 09:50:00,46.2,30.9,30.57,SE,136,0.0,0.0,55,0.00,,SKC,0.00,VWS V13.01,2013-04-23 13:50:00,
2013-04-23 09:55:00,46.5,30.8,30.57,SSW,204,1.7,1.7,54,0.00,,SKC,0.00,VWS V13.01,2013-04-23 13:55:00,
2013-04-23 10:00:00,46.9,31.1,30.57,NNE,24,0.0,0.0,54,0.00,,SKC,0.00,VWS V13.01,2013-04-23 14:00:00,
2013-04-23 10:05:00,47.1,31.3,30.57,NNE,24,1.5,1.5,54,0.00,,SKC,0.00,VWS V13.01,2013-04-23 14:05:00,
2013-04-23 10:10:00,47.3,31.0,30.56,SSE,158,0.0,1.3,53,0.00,,SKC,0.00,VWS V13.01,2013-04-23 14:10:00,
2013-04-23 10:15:00,47.4,31.1,30.56,WSW,248,0.0,0.0,53,0.00,,SKC,0.00,VWS V13.01,2013-04-23 14:15:00,
2013-04-23 10:20:00,47.8,31.5,30.56,SSE,158,6.9,6.9,53,0.00,,SKC,0.00,VWS V13.01,2013-04-23 14:20:00,
2013-04-23 10:25:00,48.0,31.7,30.56,North,1,2.2,2.2,53,0.00,,SKC,0.00,VWS V13.01,2013-04-23 14:25:00,
2013-04-23 10:30:00,48.3,32.0,30.56,East,91,0.0,0.0,53,0.00,,SKC,0.00,VWS V13.01,2013-04-23 14:30:00,
2013-04-23 10:35:00,48.7,31.9,30.56,WSW,248,0.0,0.0,52,0.00,,SKC,0.00,VWS V13.01,2013-04-23 14:35:00,
2013-04-23 10:40:00,48.9,32.1,30.55,South,181,2.6,2.6,52,0.00,,SKC,0.00,VWS V13.01,2013-04-23 14:40:00,
2013-04-23 10:45:00,48.9,32.1,30.55,NE,46,0.6,0.6,52,0.00,,SKC,0.00,VWS V13.01,2013-04-23 14:45:00,
2013-04-23 10:50:00,49.1,32.2,30.55,South,181,2.6,2.6,52,0.00,,SKC,0.00,VWS V13.01,2013-04-23 14:50:00,
2013-04-23 10:55:00,49.1,32.2,30.54,WSW,248,3.8,3.8,52,0.00,,SKC,0.00,VWS V13.01,2013-04-23 14:55:00,
2013-04-23 11:00:00,49.2,31.9,30.54,South,181,5.5,5.5,51,0.00,,SKC,0.00,VWS V13.01,2013-04-23 15:00:00,
2013-04-23 11:05:00,49.2,31.9,30.54,West,271,0.0,0.0,51,0.00,,SKC,0.00,VWS V13.01,2013-04-23 15:05:00,
2013-04-23 11:10:00,49.6,32.7,30.54,South,181,1.7,1.7,52,0.00,,SKC,0.00,VWS V13.01,2013-04-23 15:10:00,
2013-04-23 11:15:00,49.8,32.9,30.54,ESE,114,0.0,0.0,52,0.00,,SKC,0.00,VWS V13.01,2013-04-23 15:15:00,
2013-04-23 11:20:00,49.8,32.9,30.53,South,181,2.4,2.4,52,0.00,,SKC,0.00,VWS V13.01,2013-04-23 15:20:00,
2013-04-23 11:25:00,50.1,33.2,30.53,SE,136,3.8,3.8,52,0.00,,SKC,0.00,VWS V13.01,2013-04-23 15:25:00,
2013-04-23 11:30:00,50.3,33.4,30.53,NW,316,0.0,0.0,52,0.00,,SKC,0.00,VWS V13.01,2013-04-23 15:30:00,
2013-04-23 11:35:00,50.5,34.0,30.52,NE,46,3.3,3.3,53,0.00,,SKC,0.00,VWS V13.01,2013-04-23 15:35:00,
2013-04-23 11:40:00,50.9,34.9,30.52,East,91,1.1,1.1,54,0.00,,SKC,0.00,VWS V13.01,2013-04-23 15:40:00,
2013-04-23 11:46:00,51.4,34.9,30.52,ESE,114,0.0,0.0,53,0.00,,SKC,0.00,VWS V13.01,2013-04-23 15:46:00,
2013-04-23 11:51:00,51.6,34.6,30.51,South,181,0.0,0.0,52,0.00,,SKC,0.00,VWS V13.01,2013-04-23 15:51:00,
2013-04-23 11:56:00,51.8,34.8,30.51,SSW,204,0.0,0.0,52,0.00,,SKC,0.00,VWS V13.01,2013-04-23 15:56:00,
2013-04-23 12:01:00,51.9,34.8,30.51,NNE,24,2.4,2.4,52,0.00,,SKC,0.00,VWS V13.01,2013-04-23 16:01:00,
2013-04-23 12:06:00,52.1,35.5,30.51,SW,226,1.1,1.1,53,0.00,,SKC,0.00,VWS V13.01,2013-04-23 16:06:00,
2013-04-23 12:11:00,52.5,35.9,30.50,South,181,4.6,4.6,53,0.00,,SKC,0.00,VWS V13.01,2013-04-23 16:11:00,
2013-04-23 12:16:00,52.5,35.9,30.50,SSE,158,2.9,2.9,53,0.00,,SKC,0.00,VWS V13.01,2013-04-23 16:16:00,
2013-04-23 12:21:00,52.7,36.1,30.49,South,181,2.6,2.6,53,0.00,,SKC,0.00,VWS V13.01,2013-04-23 16:21:00,
2013-04-23 12:26:00,52.8,35.7,30.48,WSW,248,0.0,0.0,52,0.00,,SKC,0.00,VWS V13.01,2013-04-23 16:26:00,
2013-04-23 12:31:00,53.0,35.9,30.48,SSE,158,6.9,6.9,52,0.00,,SKC,0.00,VWS V13.01,2013-04-23 16:31:00,
2013-04-23 12:36:00,53.2,36.0,30.48,East,91,1.5,1.5,52,0.00,,SKC,0.00,VWS V13.01,2013-04-23 16:36:00,
2013-04-23 12:41:00,53.2,36.0,30.48,SSE,158,6.2,6.2,52,0.00,,SKC,0.00,VWS V13.01,2013-04-23 16:41:00,
2013-04-23 12:46:00,53.4,36.2,30.48,WSW,248,3.5,3.5,52,0.00,,SKC,0.00,VWS V13.01,2013-04-23 16:46:00,
2013-04-23 12:51:00,53.4,36.2,30.47,SSE,158,2.9,2.9,52,0.00,,SKC,0.00,VWS V13.01,2013-04-23 16:51:00,
2013-04-23 12:56:00,53.7,36.5,30.47,ESE,114,0.0,0.0,52,0.00,,SKC,0.00,VWS V13.01,2013-04-23 16:56:00,
2013-04-23 13:01:00,54.1,36.9,30.47,WSW,248,0.0,0.0,52,0.00,,SKC,0.00,VWS V13.01,2013-04-23 17:01:00,
2013-04-23 13:06:00,54.3,37.1,30.46,NW,316,3.3,3.3,52,0.00,,SKC,0.00,VWS V13.01,2013-04-23 17:06:00,
2013-04-23 13:11:00,54.3,36.6,30.46,WSW,248,1.7,1.7,51,0.00,,SKC,0.00,VWS V13.01,2013-04-23 17:11:00,
2013-04-23 13:16:00,54.3,37.1,30.46,NNW,338,0.0,0.0,52,0.00,,SKC,0.00,VWS V13.01,2013-04-23 17:16:00,
2013-04-23 13:21:00,55.2,37.9,30.46,SSE,158,4.0,4.0,52,0.00,,SKC,0.00,VWS V13.01,2013-04-23 17:21:00,
2013-04-23 13:26:00,55.5,37.7,30.46,WSW,248,2.0,2.0,51,0.00,,SKC,0.00,VWS V13.01,2013-04-23 17:26:00,
2013-04-23 13:31:00,55.9,38.0,30.45,SSE,158,2.9,2.9,51,0.00,,SKC,0.00,VWS V13.01,2013-04-23 17:31:00,
2013-04-23 13:36:00,56.1,38.2,30.46,SSW,204,1.1,2.4,51,0.00,,SKC,0.00,VWS V13.01,2013-04-23 17:36:00,
2013-04-23 13:41:00,56.1,38.7,30.45,ENE,68,1.7,1.7,52,0.00,,SKC,0.00,VWS V13.01,2013-04-23 17:41:00,
2013-04-23 13:46:00,56.4,38.5,30.45,WSW,248,0.0,0.0,51,0.00,,SKC,0.00,VWS V13.01,2013-04-23 17:46:00,
2013-04-23 13:51:00,56.4,38.5,30.45,SSW,204,1.3,1.7,51,0.00,,SKC,0.00,VWS V13.01,2013-04-23 17:51:00,
2013-04-23 13:56:00,56.4,39.0,30.44,South,181,0.0,0.0,52,0.00,,SKC,0.00,VWS V13.01,2013-04-23 17:56:00,
2013-04-23 14:01:00,56.6,39.2,30.44,SE,136,0.0,0.0,52,0.00,,SKC,0.00,VWS V13.01,2013-04-23 18:01:00,
2013-04-23 14:06:00,57.0,39.6,30.44,West,271,0.0,0.0,52,0.00,,SKC,0.00,VWS V13.01,2013-04-23 18:06:00,
2013-04-23 14:11:00,57.3,39.3,30.43,South,181,5.1,5.1,51,0.00,,SKC,0.00,VWS V13.01,2013-04-23 18:11:00,
2013-04-23 14:16:00,57.3,38.8,30.43,NE,46,0.0,0.0,50,0.00,,SKC,0.00,VWS V13.01,2013-04-23 18:16:00,
2013-04-23 14:21:00,57.3,38.8,30.43,South,181,0.0,0.0,50,0.00,,SKC,0.00,VWS V13.01,2013-04-23 18:21:00,
2013-04-23 14:26:00,57.3,38.3,30.43,SSW,204,0.0,0.0,49,0.00,,SKC,0.00,VWS V13.01,2013-04-23 18:26:00,
2013-04-23 14:31:00,57.3,38.8,30.43,WSW,248,0.0,0.0,50,0.00,,SKC,0.00,VWS V13.01,2013-04-23 18:31:00,
2013-04-23 14:36:00,57.0,38.0,30.43,West,271,0.0,0.0,49,0.00,,SKC,0.00,VWS V13.01,2013-04-23 18:36:00,
2013-04-23 14:41:00,56.8,37.9,30.43,SSE,158,0.0,0.0,49,0.00,,SKC,0.00,VWS V13.01,2013-04-23 18:41:00,
2013-04-23 14:46:00,56.8,38.4,30.43,South,181,0.0,0.0,50,0.00,,SKC,0.00,VWS V13.01,2013-04-23 18:46:00,
2013-04-23 14:51:00,57.0,38.0,30.43,SW,226,4.6,4.6,49,0.00,,SKC,0.00,VWS V13.01,2013-04-23 18:51:00,
2013-04-23 14:56:00,57.0,38.0,30.43,SSE,158,0.0,0.0,49,0.00,,SKC,0.00,VWS V13.01,2013-04-23 18:56:00,
2013-04-23 15:01:00,57.3,38.3,30.42,SSE,158,0.0,0.0,49,0.00,,SKC,0.00,VWS V13.01,2013-04-23 19:01:00,
2013-04-23 15:06:00,57.7,38.7,30.42,SE,136,4.6,4.6,49,0.00,,SKC,0.00,VWS V13.01,2013-04-23 19:06:00,
2013-04-23 15:11:00,57.7,38.7,30.42,NNE,24,0.0,0.0,49,0.00,,SKC,0.00,VWS V13.01,2013-04-23 19:11:00,
2013-04-23 15:16:00,57.7,38.7,30.42,South,181,5.5,5.5,49,0.00,,SKC,0.00,VWS V13.01,2013-04-23 19:16:00,
2013-04-23 15:21:00,57.9,38.3,30.42,South,181,0.0,4.6,48,0.00,,SKC,0.00,VWS V13.01,2013-04-23 19:21:00,
2013-04-23 15:26:00,57.9,38.3,30.42,SSW,204,0.0,0.0,48,0.00,,SKC,0.00,VWS V13.01,2013-04-23 19:26:00,
2013-04-23 15:31:00,57.9,38.3,30.42,SSW,204,0.0,0.0,48,0.00,,SKC,0.00,VWS V13.01,2013-04-23 19:31:00,
2013-04-23 15:36:00,57.9,38.3,30.41,South,181,0.0,0.0,48,0.00,,SKC,0.00,VWS V13.01,2013-04-23 19:36:00,
2013-04-23 15:41:00,57.9,38.3,30.41,ESE,114,0.0,0.0,48,0.00,,SKC,0.00,VWS V13.01,2013-04-23 19:41:00,
2013-04-23 15:46:00,57.3,37.8,30.41,SSE,158,0.0,0.0,48,0.00,,SKC,0.00,VWS V13.01,2013-04-23 19:46:00,
2013-04-23 15:51:00,57.0,38.0,30.41,SW,226,0.0,0.0,49,0.00,,SKC,0.00,VWS V13.01,2013-04-23 19:51:00,
2013-04-23 15:56:00,56.8,37.9,30.41,SE,136,0.0,0.0,49,0.00,,SKC,0.00,VWS V13.01,2013-04-23 19:56:00,
2013-04-23 16:01:00,56.8,38.4,30.41,South,181,0.4,0.4,50,0.00,,SKC,0.00,VWS V13.01,2013-04-23 20:01:00,
2013-04-23 16:06:00,57.2,38.8,30.40,ESE,114,0.0,1.1,50,0.00,,SKC,0.00,VWS V13.01,2013-04-23 20:06:00,
2013-04-23 16:11:00,57.0,38.6,30.39,NNW,338,0.0,0.0,50,0.00,,SKC,0.00,VWS V13.01,2013-04-23 20:11:00,
2013-04-23 16:16:00,57.0,38.6,30.39,NNE,24,0.0,1.3,50,0.00,,SKC,0.00,VWS V13.01,2013-04-23 20:16:00,
2013-04-23 16:21:00,57.0,39.1,30.39,SSE,158,0.2,0.2,51,0.00,,SKC,0.00,VWS V13.01,2013-04-23 20:21:00,
2013-04-23 16:26:00,57.0,39.1,30.40,South,181,0.0,0.0,51,0.00,,SKC,0.00,VWS V13.01,2013-04-23 20:26:00,
2013-04-23 16:31:00,57.0,39.6,30.39,ESE,114,0.0,0.0,52,0.00,,SKC,0.00,VWS V13.01,2013-04-23 20:31:00,
2013-04-23 16:36:00,57.0,39.6,30.38,ESE,114,0.0,0.0,52,0.00,,SKC,0.00,VWS V13.01,2013-04-23 20:36:00,
2013-04-23 16:41:00,56.8,39.4,30.38,WNW,294,3.1,3.1,52,0.00,,SKC,0.00,VWS V13.01,2013-04-23 20:41:00,
2013-04-23 16:46:00,56.3,38.9,30.38,South,181,0.0,0.0,52,0.00,,SKC,0.00,VWS V13.01,2013-04-23 20:46:00,
2013-04-23 16:51:00,55.9,39.0,30.38,SW,226,0.0,0.0,53,0.00,,SKC,0.00,VWS V13.01,2013-04-23 20:51:00,
2013-04-23 16:56:00,55.7,38.8,30.38,South,181,0.0,0.0,53,0.00,,SKC,0.00,VWS V13.01,2013-04-23 20:56:00,
2013-04-23 17:01:00,55.9,39.0,30.38,South,181,0.0,0.0,53,0.00,,SKC,0.00,VWS V13.01,2013-04-23 21:01:00,
2013-04-23 17:07:00,55.9,39.0,30.38,South,181,0.0,0.0,53,0.00,,SKC,0.00,VWS V13.01,2013-04-23 21:07:00,
2013-04-23 17:12:00,56.1,39.2,30.38,SSE,158,0.0,0.0,53,0.00,,SKC,0.00,VWS V13.01,2013-04-23 21:12:00,
2013-04-23 17:17:00,56.4,39.5,30.38,South,181,0.0,0.0,53,0.00,,SKC,0.00,VWS V13.01,2013-04-23 21:17:00,
2013-04-23 17:22:00,56.6,39.7,30.38,SSW,204,0.0,0.0,53,0.00,,SKC,0.00,VWS V13.01,2013-04-23 21:22:00,
2013-04-23 17:27:00,56.6,39.7,30.38,SSW,204,0.0,0.0,53,0.00,,SKC,0.00,VWS V13.01,2013-04-23 21:27:00,
2013-04-23 17:32:00,56.3,38.9,30.38,South,181,0.0,0.0,52,0.00,,SKC,0.00,VWS V13.01,2013-04-23 21:32:00,
2013-04-23 17:37:00,55.9,38.5,30.38,South,181,1.7,1.7,52,0.00,,SKC,0.00,VWS V13.01,2013-04-23 21:37:00,
2013-04-23 17:42:00,55.7,38.4,30.38,South,181,0.0,0.0,52,0.00,,SKC,0.00,VWS V13.01,2013-04-23 21:42:00,
2013-04-23 17:47:00,55.2,38.4,30.38,SW,226,0.0,0.0,53,0.00,,SKC,0.00,VWS V13.01,2013-04-23 21:47:00,
2013-04-23 17:52:00,54.8,38.0,30.38,WSW,248,0.0,0.0,53,0.00,,SKC,0.00,VWS V13.01,2013-04-23 21:52:00,
2013-04-23 17:57:00,54.5,37.7,30.38,SSW,204,0.0,0.0,53,0.00,,SKC,0.00,VWS V13.01,2013-04-23 21:57:00,
2013-04-23 18:02:00,54.1,37.4,30.38,SSE,158,0.0,0.0,53,0.00,,SKC,0.00,VWS V13.01,2013-04-23 22:02:00,
2013-04-23 18:07:00,54.1,37.8,30.38,SSE,158,0.0,0.0,54,0.00,,SKC,0.00,VWS V13.01,2013-04-23 22:07:00,
2013-04-23 18:12:00,54.1,37.8,30.37,South,181,0.0,0.0,54,0.00,,SKC,0.00,VWS V13.01,2013-04-23 22:12:00,
2013-04-23 18:17:00,53.9,37.7,30.36,South,181,0.0,0.0,54,0.00,,SKC,0.00,VWS V13.01,2013-04-23 22:17:00,
2013-04-23 18:22:00,53.7,37.5,30.35,South,181,0.0,0.0,54,0.00,,SKC,0.00,VWS V13.01,2013-04-23 22:22:00,
2013-04-23 18:27:00,53.6,37.8,30.35,SSW,204,0.0,0.0,55,0.00,,SKC,0.00,VWS V13.01,2013-04-23 22:27:00,
2013-04-23 18:32:00,53.4,37.7,30.35,SSE,158,0.0,0.0,55,0.00,,SKC,0.00,VWS V13.01,2013-04-23 22:32:00,
2013-04-23 18:37:00,53.4,37.7,30.36,NNE,24,0.0,0.0,55,0.00,,SKC,0.00,VWS V13.01,2013-04-23 22:37:00,
2013-04-23 18:42:00,52.8,37.1,30.36,South,181,1.3,2.4,55,0.00,,SKC,0.00,VWS V13.01,2013-04-23 22:42:00,
2013-04-23 18:47:00,52.7,37.5,30.36,SSE,158,0.0,0.0,56,0.00,,SKC,0.00,VWS V13.01,2013-04-23 22:47:00,
2013-04-23 18:52:00,52.3,37.1,30.36,SSE,158,0.0,0.0,56,0.00,,SKC,0.00,VWS V13.01,2013-04-23 22:52:00,
2013-04-23 18:57:00,52.3,37.1,30.36,SSE,158,0.0,0.0,56,0.00,,SKC,0.00,VWS V13.01,2013-04-23 22:57:00,
2013-04-23 19:02:00,52.3,37.1,30.35,SSE,158,0.0,0.0,56,0.00,,SKC,0.00,VWS V13.01,2013-04-23 23:02:00,
2013-04-23 19:07:00,52.3,37.1,30.36,South,181,0.0,0.0,56,0.00,,SKC,0.00,VWS V13.01,2013-04-23 23:07:00,
2013-04-23 19:12:00,52.1,36.9,30.36,South,181,0.0,0.0,56,0.00,,SKC,0.00,VWS V13.01,2013-04-23 23:12:00,
2013-04-23 19:17:00,51.9,36.7,30.35,SSW,204,0.0,0.0,56,0.00,,SKC,0.00,VWS V13.01,2013-04-23 23:17:00,
2013-04-23 19:22:00,51.8,36.6,30.35,SSW,204,0.0,0.0,56,0.00,,SKC,0.00,VWS V13.01,2013-04-23 23:22:00,
2013-04-23 19:27:00,51.2,36.1,30.35,South,181,0.0,0.0,56,0.00,,SKC,0.00,VWS V13.01,2013-04-23 23:27:00,
2013-04-23 19:32:00,50.7,35.6,30.35,SSE,158,0.0,0.0,56,0.00,,SKC,0.00,VWS V13.01,2013-04-23 23:32:00,
2013-04-23 19:37:00,50.5,35.8,30.35,South,181,4.0,4.0,57,0.00,,SKC,0.00,VWS V13.01,2013-04-23 23:37:00,
2013-04-23 19:42:00,49.8,35.2,30.36,SW,226,0.0,0.0,57,0.00,,SKC,0.00,VWS V13.01,2013-04-23 23:42:00,
2013-04-23 19:47:00,49.6,35.5,30.36,SSW,204,0.0,0.0,58,0.00,,SKC,0.00,VWS V13.01,2013-04-23 23:47:00,
2013-04-23 19:52:00,49.1,35.0,30.36,SSW,204,0.0,0.0,58,0.00,,SKC,0.00,VWS V13.01,2013-04-23 23:52:00,
2013-04-23 19:57:00,48.5,34.8,30.36,South,181,0.0,0.0,59,0.00,,SKC,0.00,VWS V13.01,2013-04-23 23:57:00,
2013-04-23 20:02:00,48.3,34.7,30.36,SSE,158,0.0,0.0,59,0.00,,SKC,0.00,VWS V13.01,2013-04-24 00:02:00,
2013-04-23 20:07:00,48.0,34.4,30.36,SSE,158,0.0,0.0,59,0.00,,SKC,0.00,VWS V13.01,2013-04-24 00:07:00,
2013-04-23 20:12:00,47.6,34.4,30.37,SSE,158,0.0,0.0,60,0.00,,SKC,0.00,VWS V13.01,2013-04-24 00:12:00,
2013-04-23 20:17:00,47.3,34.1,30.36,South,181,0.0,0.0,60,0.00,,SKC,0.00,VWS V13.01,2013-04-24 00:17:00,
2013-04-23 20:22:00,47.1,33.9,30.36,South,181,0.0,0.0,60,0.00,,SKC,0.00,VWS V13.01,2013-04-24 00:22:00,
2013-04-23 20:27:00,46.7,34.0,30.36,South,181,0.0,0.0,61,0.00,,SKC,0.00,VWS V13.01,2013-04-24 00:27:00,
2013-04-23 20:32:00,46.5,33.8,30.36,South,181,0.0,0.0,61,0.00,,SKC,0.00,VWS V13.01,2013-04-24 00:32:00,
2013-04-23 20:37:00,46.2,33.9,30.35,ESE,114,0.0,0.0,62,0.00,,SKC,0.00,VWS V13.01,2013-04-24 00:37:00,
2013-04-23 20:42:00,46.2,33.9,30.34,SSE,158,4.4,4.4,62,0.00,,SKC,0.00,VWS V13.01,2013-04-24 00:42:00,
2013-04-23 20:47:00,46.0,34.1,30.34,South,181,2.4,2.4,63,0.00,,SKC,0.00,VWS V13.01,2013-04-24 00:47:00,
2013-04-23 20:52:00,46.0,34.5,30.34,South,181,0.0,0.0,64,0.00,,SKC,0.00,VWS V13.01,2013-04-24 00:52:00,
2013-04-23 20:57:00,45.8,34.3,30.35,SSW,204,0.0,0.0,64,0.00,,SKC,0.00,VWS V13.01,2013-04-24 00:57:00,
2013-04-23 21:02:00,45.6,34.5,30.34,SSE,158,1.3,1.3,65,0.00,,SKC,0.00,VWS V13.01,2013-04-24 01:02:00,
2013-04-23 21:07:00,45.6,34.5,30.33,South,181,6.2,6.2,65,0.00,,SKC,0.00,VWS V13.01,2013-04-24 01:07:00,
2013-04-23 21:12:00,45.3,34.2,30.33,South,181,2.4,3.3,65,0.00,,SKC,0.00,VWS V13.01,2013-04-24 01:12:00,
2013-04-23 21:17:00,45.3,34.2,30.33,South,181,0.0,0.0,65,0.00,,SKC,0.00,VWS V13.01,2013-04-24 01:17:00,
2013-04-23 21:22:00,45.1,34.4,30.33,South,181,0.0,0.0,66,0.00,,SKC,0.00,VWS V13.01,2013-04-24 01:22:00,
2013-04-23 21:27:00,44.9,34.2,30.33,SSE,158,1.5,1.5,66,0.00,,SKC,0.00,VWS V13.01,2013-04-24 01:27:00,
2013-04-23 21:32:00,44.9,34.2,30.32,South,181,0.0,0.0,66,0.00,,SKC,0.00,VWS V13.01,2013-04-24 01:32:00,
2013-04-23 21:37:00,44.7,34.0,30.31,South,181,0.0,0.0,66,0.00,,SKC,0.00,VWS V13.01,2013-04-24 01:37:00,
2013-04-23 21:42:00,44.4,34.1,30.32,SE,136,0.0,3.5,67,0.00,,SKC,0.00,VWS V13.01,2013-04-24 01:42:00,
2013-04-23 21:47:00,44.4,34.1,30.32,SW,226,0.0,0.0,67,0.00,,SKC,0.00,VWS V13.01,2013-04-24 01:47:00,
2013-04-23 21:52:00,44.2,34.0,30.31,SSE,158,0.0,0.0,67,0.00,,SKC,0.00,VWS V13.01,2013-04-24 01:52:00,
2013-04-23 21:57:00,44.2,34.0,30.31,SSE,158,0.0,0.0,67,0.00,,SKC,0.00,VWS V13.01,2013-04-24 01:57:00,
2013-04-23 22:02:00,44.0,33.8,30.31,South,181,0.0,0.0,67,0.00,,SKC,0.00,VWS V13.01,2013-04-24 02:02:00,
2013-04-23 22:07:00,43.8,34.3,30.31,East,91,0.0,0.0,69,0.00,,SKC,0.00,VWS V13.01,2013-04-24 02:07:00,
2013-04-23 22:12:00,44.0,34.1,30.32,South,181,3.8,3.8,68,0.00,,SKC,0.00,VWS V13.01,2013-04-24 02:12:00,
2013-04-23 22:17:00,43.8,34.3,30.32,SSE,158,6.0,6.0,69,0.00,,SKC,0.00,VWS V13.01,2013-04-24 02:17:00,
2013-04-23 22:22:00,43.8,34.7,30.31,SSW,204,1.5,1.5,70,0.00,,SKC,0.00,VWS V13.01,2013-04-24 02:22:00,
2013-04-23 22:27:00,44.0,34.9,30.31,SSE,158,2.6,4.9,70,0.00,,SKC,0.00,VWS V13.01,2013-04-24 02:27:00,
2013-04-23 22:32:00,44.2,35.0,30.31,SW,226,0.0,0.0,70,0.00,,SKC,0.00,VWS V13.01,2013-04-24 02:32:00,
2013-04-23 22:37:00,44.2,34.7,30.30,NE,46,0.0,0.0,69,0.00,,SKC,0.00,VWS V13.01,2013-04-24 02:37:00,
2013-04-23 22:42:00,43.7,34.2,30.31,NNE,24,0.0,0.0,69,0.00,,SKC,0.00,VWS V13.01,2013-04-24 02:42:00,
2013-04-23 22:47:00,43.5,34.4,30.30,SSE,158,0.0,0.0,70,0.00,,SKC,0.00,VWS V13.01,2013-04-24 02:47:00,
2013-04-23 22:53:00,42.9,33.4,30.30,NE,46,0.0,0.0,69,0.00,,SKC,0.00,VWS V13.01,2013-04-24 02:53:00,
2013-04-23 22:58:00,42.6,33.5,30.30,ENE,68,0.0,0.0,70,0.00,,SKC,0.00,VWS V13.01,2013-04-24 02:58:00,
2013-04-23 23:03:00,42.4,33.3,30.30,ENE,68,0.0,0.0,70,0.00,,SKC,0.00,VWS V13.01,2013-04-24 03:03:00,
2013-04-23 23:08:00,42.0,33.3,30.29,NNE,24,0.0,0.0,71,0.00,,SKC,0.00,VWS V13.01,2013-04-24 03:08:00,
2013-04-23 23:13:00,41.7,33.0,30.30,NNE,24,0.0,0.0,71,0.00,,SKC,0.00,VWS V13.01,2013-04-24 03:13:00,
2013-04-23 23:18:00,41.5,32.8,30.30,NNE,24,0.0,0.0,71,0.00,,SKC,0.00,VWS V13.01,2013-04-24 03:18:00,
2013-04-23 23:24:00,41.3,32.6,30.30,NE,46,0.0,0.0,71,0.00,,SKC,0.00,VWS V13.01,2013-04-24 03:24:00,
2013-04-23 23:29:00,41.1,32.8,30.30,NE,46,0.0,0.0,72,0.00,,SKC,0.00,VWS V13.01,2013-04-24 03:29:00,
2013-04-23 23:34:00,41.0,32.7,30.30,WSW,248,0.0,0.0,72,0.00,,SKC,0.00,VWS V13.01,2013-04-24 03:34:00,
2013-04-23 23:39:00,41.1,33.1,30.30,ENE,68,0.0,0.0,73,0.00,,SKC,0.00,VWS V13.01,2013-04-24 03:39:00,
2013-04-23 23:44:00,41.1,33.1,30.30,ENE,68,0.0,0.0,73,0.00,,SKC,0.00,VWS V13.01,2013-04-24 03:44:00,
2013-04-23 23:49:00,41.3,33.3,30.29,West,271,0.0,0.0,73,0.00,,SKC,0.00,VWS V13.01,2013-04-24 03:49:00,
2013-04-23 23:54:00,41.5,33.5,30.29,SSE,158,0.0,0.0,73,0.00,,SKC,0.00,VWS V13.01,2013-04-24 03:54:00,
2013-04-23 23:59:00,41.5,33.5,30.29,WSW,248,0.0,0.0,73,0.00,,SKC,0.00,VWS V13.01,2013-04-24 03:59:00,